Location: Kaiser
(34.0939°N, 117.4889°W)
Time: 21:24:44
(UTC+00:00)

Cosmos 2082 Rocket - Pass Details

Date: 29 October 2020
Orbit: 833 x 854 km, 71.0° (Epoch: 25 November)

Event Time Altitude Azimuth Distance (km) Brightness Sun altitude
Exits shadow 12:09:47 65° 255° (WSW) 909 2.0 -24.9°
Maximum altitude 12:10:17 70° 291° (WNW) 884 2.0 -24.8°
Drops below altitude 10° 12:15:53 10° 16° (NNE) 2,448 4.8 -23.6°
Sets 12:18:21 0° 19° (NNE) 3,387 5.6 -23.1°
